Regional Weather Roundup
Issued by NWS

Home | Current Version | Previous Version | Graphics & Text | Print | Product List | Glossary On
Versions: 1 2 3 4 5 6 7 8 9 10 11 12 13 14 15 16 17 18 19 20 21 22 23 24 25 26 27 28 29 30 31 32 33 34 35 36 37 38 39 40 41 42 43 44 45 46 47 48 49 50
000
ASUS45 KBOU 101407
RWRCO

WEATHER ROUNDUP FOR COLORADO
NATIONAL WEATHER SERVICE DENVER/BOULDER CO
700 AM MST WED FEB 10 2016

NOTE: "FAIR" INDICATES FEW OR NO CLOUDS BELOW 12000 FEET WITH NO
SIGNIFICANT WEATHER AND/OR OBSTRUCTIONS TO VISIBILITY.

COZ001>005-013-030-031-101500-
...NORTHWEST COLORADO...

CITY           SKY/WX    TMP DP  RH WIND       PRES   REMARKS
CRAIG          FOG       -2  -5  87 CALM      30.45S VSB 1/4
HAYDEN         CLOUDY    16   9  73 SE14      30.42F WCI   1
MEEKER         CLOUDY     5   1  83 NE3       30.45S
MOUNT WERNER   NOT AVBL
STEAMBOAT SPGS CLOUDY     6   3  87 CALM      30.45S
WALDEN         CLOUDY     9   1  72 SE9       30.40F WCI  -5
$$

COZ006>008-011-101500-
...WEST CENTRAL VALLEYS...

CITY           SKY/WX    TMP DP  RH WIND       PRES   REMARKS
GRAND JUNCTION CLOUDY    20  17  88 CALM      30.46S
MONTROSE       CLOUDY    18  11  74 S6        30.49S WCI  10
EAGLE          CLOUDY     5   5 100 CALM      30.56S
RIFLE          CLOUDY    14   9  80 E3        30.49R
DELTA          CLOUDY    22  18  85 CALM      30.49S
NUCLA          CLOUDY    23  14  68 E6        30.50R WCI  16
$$

COZ017>023-064>068-101500-
...SOUTHWEST COLORADO...

CITY           SKY/WX    TMP DP  RH WIND       PRES   REMARKS
DURANGO        CLOUDY     9   6  88 CALM      30.44S
CORTEZ         CLOUDY    16  12  84 NE6       30.46R WCI   7
PAGOSA SPRINGS CLOUDY    16  10  77 CALM      30.46S
TELLURIDE      CLOUDY    25   2  35 SE7       30.50S WCI  18
WOLF CREEK PAS CLOUDY    30 -13  15 W5        30.58S WCI  25
$$

COZ009-010-012-014-032>034-037-058>063-101500-
...CENTRAL COLORADO...

CITY           SKY/WX    TMP DP  RH WIND       PRES   REMARKS
ASPEN          CLOUDY    10   3  73 S5        30.45S WCI   2
BUENA VISTA    CLOUDY    18   8  65 NW3       30.42S
COPPER MTN     CLOUDY    28  -8  20 W16G26    30.50R WCI  17
BERTHOUD PASS  FAIR      21  10  63 NW31G37   30.46S WCI   3
COTTONWOOD PAS CLOUDY    39 -18   8 SW10G18   30.42F
GUNNISON       CLOUDY   -11 N/A N/A CALM      30.61R
KREMMLING      CLOUDY   N/A N/A N/A CALM      30.55S FOG
LEADVILLE      CLOUDY    17  -5  37 NE8       30.45S WCI   7
MONARCH PASS   CLOUDY    27  -6  24 W28       30.59F WCI  11
SALIDA         NOT AVBL
SUNLIGHT       CLOUDY    30   9  40 CALM        N/A
WILKERSON PASS CLOUDY    30  -9  17 W8G16     30.47R WCI  23
$$

COZ069>075-101500-
...SAN LUIS VALLEY/SANGRE DE CRISTO MOUNTAINS...

CITY           SKY/WX    TMP DP  RH WIND       PRES   REMARKS
ALAMOSA        CLOUDY    12   8  84 CALM      30.46R
LA VETA PASS   CLOUDY    28   3  34 S14G20    30.44S WCI  17
SAGUACHE       NOT AVBL
$$

COZ035-036-038>040-101500-
...NORTHERN COLORADO FRONT RANGE...

CITY           SKY/WX    TMP DP  RH WIND       PRES   REMARKS
DENVER INTL AP CLOUDY    38  14  37 SW14      30.16S
DMNS CITY PARK   N/A     39  10  30 SE10      30.18R
AURORA         NOT AVBL
FRONT RANGE AP PTCLDY    39  12  33 MISG      30.17
ERIE MUNI ARPT CLOUDY    45  13  26 W10       30.16R
BOULDER MUN AP CLOUDY    52  12  20 W13G18    30.18R
CENTENNIAL     CLOUDY    42  12  29 SW16      30.19S
BROOMFIELD     CLEAR     52  10  19 W26G35    30.18R
FORT COLLINS   CLOUDY    45  16  31 NW7       30.14S
LONGMONT       CLOUDY    49  15  25 W15       30.17R
$$

COZ041-046-047-076>085-087-088-101500-
...PIKES PEAK/PALMER DIVIDE AND SOUTHERN FOOTHILLS...

CITY           SKY/WX    TMP DP  RH WIND       PRES   REMARKS
COLO. SPRINGS  CLOUDY    43   6  21 NW15      30.23F
A. F. ACADEMY  CLOUDY    33   7  33 E9        30.24S WCI  25
SCHRIEVER AFB  FAIR      48   6  18 NW20G28   30.22F
ELLICOTT       CLOUDY   N/A N/A N/A N9        30.21S
FALCON         NOT AVBL
FORT CARSON    PTCLDY    38   5  25 NW9       30.20S
LIMON          CLOUDY    23  13  65 NW8       30.17S WCI  14
MONUMENT HILL  CLOUDY    36   3  25 SW10      30.25F
TRINIDAD       CLOUDY    37  10  32 SW17      30.25F
$$

COZ042>045-048>051-090-091-101500-
...NORTHEAST COLORADO...

CITY           SKY/WX    TMP DP  RH WIND       PRES   REMARKS
GREELEY ARPT   CLEAR     18  14  86 W5        30.14S WCI  11
AKRON          CLOUDY    36  18  48 SW21      30.08F
BURLINGTON     CLOUDY    29  17  61 W13       30.10S WCI  19
WRAY           CLOUDY    30  22  72 SW12      30.06F WCI  21
STERLING       CLOUDY    28  23  80 S14       30.06F WCI  17
HOLYOKE        CLOUDY    34  27  75 W12       30.04F WCI  25
FORT MORGAN    CLOUDY    25  20  82 W12       30.11S WCI  14
$$

COZ086-089-092>099-101500-
...SOUTHEAST COLORADO...

CITY           SKY/WX    TMP DP  RH WIND       PRES   REMARKS
PUEBLO         CLOUDY    40  15  36 SW9       30.19S
LA JUNTA       CLOUDY    34  20  56 W15       30.16F WCI  24
LAMAR          CLOUDY    27  23  85 W12       30.14F WCI  17
SPRINGFIELD      N/A     39  17  41 W16       30.16S
$$



USA.gov is the U.S. government's official web portal to all federal, state and local government web resources and services.